• En España
  • Lista de países
  • Para 7 días
  • Temperatura del agua
  • Mapa Satelital
  • El tiempo en el mapa
  • Informadores
  • user-avatar
    Iniciar sesión

    Tiempo cada hora Serga

    Hoy, 16 Agosto, Jueves

    Tiempo Temperatura Precipitaciones Viento Presión Humedad
    00:00 +13°C° 0 mm 1 mps 750 mmHg 89%
    01:00 +13°C° 0 mm 1 mps 750 mmHg 91%
    02:00 +12°C° 0 mm 1 mps 750 mmHg 91%
    03:00 +12°C° 0 mm 1 mps 750 mmHg 92%
    04:00 +12°C° 0 mm 1 mps 750 mmHg 93%
    05:00 +13°C° 0 mm 1 mps 750 mmHg 89%
    06:00 +14°C° 0 mm 1 mps 750 mmHg 86%
    07:00 +15°C° 0 mm 2 mps 750 mmHg 82%
    08:00 +16°C° 0,4 mm 2 mps 749 mmHg 84%
    09:00 +16°C° 0,4 mm 3 mps 749 mmHg 86%
    10:00 +17°C° 0,4 mm 3 mps 748 mmHg 88%
    11:00 +16°C° 2,2 mm 3 mps 748 mmHg 90%
    12:00 +16°C° 2,2 mm 3 mps 747 mmHg 92%
    13:00 +16°C° 2,2 mm 3 mps 747 mmHg 94%
    14:00 +17°C° 0,9 mm 3 mps 746 mmHg 95%
    15:00 +17°C° 0,9 mm 3 mps 746 mmHg 95%
    16:00 +18°C° 0,9 mm 2 mps 746 mmHg 96%
    17:00 +18°C° 0,7 mm 2 mps 746 mmHg 96%
    18:00 +18°C° 0,7 mm 2 mps 746 mmHg 96%
    19:00 +18°C° 0,7 mm 2 mps 745 mmHg 96%
    20:00 +18°C° 0,4 mm 2 mps 745 mmHg 97%
    21:00 +17°C° 0,4 mm 2 mps 746 mmHg 97%
    22:00 +16°C° 0,4 mm 2 mps 746 mmHg 98%
    23:00 +16°C° 0,2 mm 2 mps 746 mmHg 98%

    Mañana, 17 Agosto, Viernes

    Tiempo Temperatura Precipitaciones Viento Presión Humedad
    00:00 +16°C° 0,2 mm 2 mps 746 mmHg 98%
    01:00 +14°C° 0,2 mm 3 mps 746 mmHg 98%
    02:00 +14°C° 0,1 mm 3 mps 746 mmHg 97%
    03:00 +13°C° 0,1 mm 3 mps 746 mmHg 97%
    04:00 +13°C° 0,1 mm 4 mps 747 mmHg 96%
    05:00 +12°C° 0 mm 4 mps 747 mmHg 96%
    06:00 +12°C° 0 mm 4 mps 747 mmHg 95%
    07:00 +12°C° 0 mm 4 mps 748 mmHg 94%
    08:00 +13°C° 0 mm 4 mps 748 mmHg 88%
    09:00 +14°C° 0 mm 4 mps 749 mmHg 82%
    10:00 +15°C° 0 mm 4 mps 749 mmHg 76%
    11:00 +18°C° 0,1 mm 4 mps 749 mmHg 70%
    12:00 +19°C° 0,1 mm 4 mps 750 mmHg 63%
    13:00 +20°C° 0,1 mm 5 mps 750 mmHg 56%
    14:00 +20°C° 0,1 mm 4 mps 750 mmHg 55%
    15:00 +20°C° 0,1 mm 4 mps 750 mmHg 53%
    16:00 +20°C° 0,1 mm 4 mps 750 mmHg 52%
    17:00 +19°C° 0 mm 4 mps 750 mmHg 59%
    18:00 +17°C° 0 mm 3 mps 750 mmHg 67%
    19:00 +16°C° 0 mm 3 mps 751 mmHg 74%
    20:00 +13°C° 0,1 mm 3 mps 751 mmHg 80%
    21:00 +13°C° 0,1 mm 2 mps 751 mmHg 86%
    22:00 +12°C° 0,1 mm 2 mps 752 mmHg 92%
    23:00 +10°C° 0 mm 2 mps 752 mmHg 93%

    Pasado mañana, 18 Agosto, Sábado

    Tiempo Temperatura Precipitaciones Viento Presión Humedad
    00:00 +10°C° 0 mm 2 mps 752 mmHg 95%
    01:00 +9°C° 0 mm 2 mps 752 mmHg 97%
    02:00 +9°C° 0 mm 2 mps 752 mmHg 97%
    03:00 +8°C° 0 mm 2 mps 752 mmHg 97%
    04:00 +8°C° 0 mm 2 mps 753 mmHg 97%
    05:00 +8°C° 0 mm 3 mps 753 mmHg 95%
    06:00 +9°C° 0 mm 3 mps 753 mmHg 93%
    07:00 +9°C° 0 mm 3 mps 753 mmHg 91%
    08:00 +11°C° 0 mm 3 mps 753 mmHg 82%
    09:00 +13°C° 0 mm 4 mps 753 mmHg 74%
    10:00 +14°C° 0 mm 4 mps 754 mmHg 65%
    11:00 +15°C° 0 mm 4 mps 753 mmHg 62%
    12:00 +15°C° 0 mm 4 mps 753 mmHg 58%
    13:00 +17°C° 0 mm 4 mps 753 mmHg 55%
    14:00 +17°C° 0 mm 4 mps 753 mmHg 54%
    15:00 +17°C° 0 mm 3 mps 753 mmHg 53%
    16:00 +17°C° 0 mm 3 mps 753 mmHg 52%
    17:00 +16°C° 0 mm 3 mps 754 mmHg 59%
    18:00 +14°C° 0 mm 3 mps 754 mmHg 65%
    19:00 +14°C° 0 mm 2 mps 754 mmHg 72%
    20:00 +13°C° 0 mm 2 mps 754 mmHg 77%
    21:00 +10°C° 0 mm 2 mps 754 mmHg 83%
    22:00 +9°C° 0 mm 2 mps 755 mmHg 89%
    23:00 +9°C° 0 mm 2 mps 755 mmHg 90%

    19 Agosto, Domingo

    Tiempo Temperatura Precipitaciones Viento Presión Humedad
    00:00 +8°C° 0 mm 2 mps 755 mmHg 92%
    01:00 +8°C° 0 mm 2 mps 755 mmHg 93%
    02:00 +8°C° 0 mm 1 mps 755 mmHg 93%
    03:00 +8°C° 0 mm 1 mps 755 mmHg 94%
    04:00 +7°C° 0 mm 1 mps 756 mmHg 94%
    05:00 +8°C° 0 mm 1 mps 756 mmHg 89%
    06:00 +9°C° 0 mm 1 mps 756 mmHg 85%
    07:00 +10°C° 0 mm 1 mps 756 mmHg 80%
    08:00 +12°C° 0 mm 2 mps 756 mmHg 73%
    09:00 +14°C° 0 mm 2 mps 756 mmHg 65%
    10:00 +16°C° 0 mm 2 mps 756 mmHg 57%
    11:00 +16°C° 0 mm 2 mps 755 mmHg 55%
    12:00 +17°C° 0 mm 2 mps 755 mmHg 53%
    13:00 +18°C° 0 mm 2 mps 755 mmHg 50%
    14:00 +18°C° 0 mm 2 mps 755 mmHg 51%
    15:00 +17°C° 0 mm 2 mps 755 mmHg 52%
    16:00 +17°C° 0 mm 2 mps 754 mmHg 52%
    17:00 +16°C° 0 mm 1 mps 754 mmHg 58%
    18:00 +15°C° 0 mm 1 mps 754 mmHg 64%
    19:00 +14°C° 0 mm 1 mps 754 mmHg 70%
    20:00 +13°C° 0 mm 1 mps 754 mmHg 73%
    21:00 +10°C° 0 mm 0 mps 754 mmHg 77%
    22:00 +9°C° 0 mm 0 mps 755 mmHg 80%
    23:00 +8°C° 0 mm 0 mps 755 mmHg 82%

    20 Agosto, Lunes

    Tiempo Temperatura Precipitaciones Viento Presión Humedad
    00:00 +8°C° 0 mm 0 mps 755 mmHg 83%
    01:00 +7°C° 0 mm 0 mps 755 mmHg 84%
    02:00 +7°C° 0 mm 0 mps 755 mmHg 85%
    03:00 +7°C° 0 mm 0 mps 755 mmHg 87%
    04:00 +7°C° 0 mm 1 mps 755 mmHg 88%
    05:00 +8°C° 0 mm 0 mps 755 mmHg 84%
    06:00 +9°C° 0 mm 0 mps 755 mmHg 80%
    07:00 +10°C° 0 mm 0 mps 755 mmHg 75%
    08:00 +13°C° 0 mm 0 mps 754 mmHg 68%
    09:00 +15°C° 0 mm 0 mps 754 mmHg 61%
    10:00 +17°C° 0 mm 0 mps 754 mmHg 53%
    11:00 +18°C° 0 mm 0 mps 753 mmHg 50%
    12:00 +21°C° 0 mm 1 mps 753 mmHg 46%
    13:00 +22°C° 0 mm 1 mps 753 mmHg 43%
    14:00 +22°C° 0 mm 1 mps 753 mmHg 43%
    15:00 +22°C° 0 mm 1 mps 752 mmHg 42%
    16:00 +22°C° 0 mm 1 mps 752 mmHg 42%
    17:00 +20°C° 0 mm 1 mps 752 mmHg 50%
    18:00 +19°C° 0 mm 1 mps 752 mmHg 58%
    19:00 +16°C° 0 mm 1 mps 752 mmHg 66%
    20:00 +15°C° 0 mm 1 mps 752 mmHg 68%
    21:00 +14°C° 0 mm 2 mps 752 mmHg 70%
    22:00 +13°C° 0 mm 2 mps 752 mmHg 73%
    23:00 +13°C° 0 mm 2 mps 751 mmHg 74%

    21 Agosto, Martes

    Tiempo Temperatura Precipitaciones Viento Presión Humedad
    00:00 +13°C° 0 mm 2 mps 751 mmHg 75%
    01:00 +12°C° 0 mm 2 mps 751 mmHg 77%
    02:00 +12°C° 0 mm 2 mps 751 mmHg 78%
    03:00 +12°C° 0 mm 2 mps 751 mmHg 79%
    04:00 +12°C° 0 mm 2 mps 751 mmHg 80%
    05:00 +13°C° 0 mm 2 mps 750 mmHg 80%
    06:00 +12°C° 0 mm 3 mps 750 mmHg 80%
    07:00 +13°C° 0 mm 3 mps 750 mmHg 80%
    08:00 +13°C° 0,3 mm 3 mps 750 mmHg 84%
    09:00 +14°C° 0,3 mm 3 mps 750 mmHg 88%
    10:00 +14°C° 0,3 mm 3 mps 750 mmHg 91%
    11:00 +16°C° 0,4 mm 3 mps 749 mmHg 90%
    12:00 +17°C° 0,4 mm 3 mps 749 mmHg 89%
    13:00 +18°C° 0,4 mm 3 mps 749 mmHg 87%
    14:00 +19°C° 0,4 mm 3 mps 749 mmHg 85%
    15:00 +20°C° 0,4 mm 2 mps 749 mmHg 83%
    16:00 +20°C° 0,4 mm 2 mps 749 mmHg 80%
    17:00 +19°C° 0,1 mm 2 mps 749 mmHg 83%
    18:00 +20°C° 0,1 mm 1 mps 749 mmHg 87%
    19:00 +19°C° 0,1 mm 1 mps 749 mmHg 90%
    20:00 +16°C° 0 mm 1 mps 749 mmHg 91%
    21:00 +15°C° 0 mm 1 mps 749 mmHg 92%
    22:00 +13°C° 0 mm 0 mps 749 mmHg 93%
    23:00 +13°C° 0 mm 0 mps 749 mmHg 93%
    Mostrar más